FW0917 Weather Reports


time (UTC)temp
F
wind
direction
speed
knots
gust
knots
rain 1hr
in
rain 24hr
in
rain mn
in
humidity
%
barometer
mb
20260507143203 53 301 1.7 2.6 0.00 0.45 0.01 61 1007.3
20260507142703 53 306 1.7 2.6 0.00 0.45 0.01 62 1007.4
20260507142203 53 337 0.9 2.6 0.00 0.45 0.01 67 1007.3
20260507141703 52 231 2.6 10.4 0.00 0.45 0.01 64 1007.4
20260507141203 52 304 1.7 2.6 0.00 0.45 0.01 66 1007.4
20260507140704 52 168 0.9 2.6 0.00 0.45 0.01 70 1007.4
20260507140203 52 346 0.9 2.6 0.00 0.45 0.01 67 1007.3
20260507135704 52 303 1.7 2.6 0.00 0.45 0.01 68 1007.3
20260507134203 50 272 2.6 7.0 0.00 0.45 0.01 75 1007.3
20260507133703 51 292 0.9 2.6 0.00 0.45 0.01 74 1007.3
20260507133204 51 325 0.9 2.6 0.00 0.45 0.01 74 1007.2
20260507132703 51 307 1.7 2.6 0.00 0.45 0.01 75 1007.2
20260507132203 51 293 0.9 2.6 0.00 0.45 0.01 76 1007.2
20260507130703 50 296 0.9 4.3 0.00 0.45 0.01 78 1007.3
20260507130203 50 312 1.7 2.6 0.00 0.45 0.01 78 1007.3
20260507125703 49 294 0.9 6.1 0.00 0.45 0.01 81 1007.3
20260507125203 49 290 1.7 2.6 0.00 0.45 0.01 80 1007.4
20260507124703 49 299 0.9 2.6 0.00 0.45 0.01 82 1007.3
20260507124203 49 352 0.9 2.6 0.00 0.45 0.01 80 1007.4
20260507123703 49 305 1.7 2.6 0.00 0.45 0.01 81 1007.4
20260507123203 48 302 1.7 2.6 0.00 0.45 0.01 81 1007.4
20260507122705 48 325 0.9 2.6 0.00 0.45 0.01 82 1007.3
20260507121703 48 331 0.0 2.6 0.00 0.45 0.01 83 1007.4
20260507121203 48 306 0.9 2.6 0.00 0.45 0.01 84 1007.3
20260507120703 48 305 0.9 2.6 0.00 0.45 0.01 85 1007.3
20260507120204 47 302 1.7 2.6 0.00 0.45 0.01 84 1007.3
20260507114703 46 236 0.0 0.0 0.00 0.45 0.01 90 1007.4
20260507114204 46 243 0.0 0.0 0.00 0.45 0.01 89 1007.3
20260507113703 46 243 0.0 0.0 0.00 0.45 0.01 89 1007.2
20260507113204 46 243 0.0 0.0 0.00 0.45 0.01 90 1007.1
20260507112703 46 290 0.0 0.0 0.00 0.45 0.01 89 1006.9
20260507112204 46 289 0.0 0.0 0.00 0.45 0.01 90 1007.1
20260507111704 46 245 0.0 0.0 0.00 0.45 0.01 90 1007.2
20260507111204 46 238 0.0 0.0 0.00 0.45 0.01 91 1007.1
20260507110704 46 238 0.0 0.9 0.00 0.45 0.01 91 1007.1
20260507110203 46 238 0.0 0.9 0.00 0.45 0.01 91 1007.1
20260507105704 46 238 0.0 0.9 0.00 0.45 0.01 91 1007.0
20260507105203 46 238 0.0 0.9 0.00 0.45 0.01 91 1007.0
20260507104704 45 238 0.0 2.6 0.00 0.45 0.01 91 1006.9
20260507103703 46 237 0.0 0.9 0.00 0.45 0.01 91 1006.8
20260507102703 45 219 0.0 1.7 0.00 0.45 0.01 91 1006.8
20260507102204 45 312 0.0 0.9 0.00 0.45 0.01 91 1006.5
20260507101703 45 305 0.0 1.7 0.00 0.45 0.01 91 1006.1
20260507101203 45 246 0.0 0.0 0.00 0.45 0.01 91 1006.4
20260507095704 45 294 0.0 0.0 0.00 0.45 0.01 92 1006.5
20260507095204 45 294 0.0 0.0 0.00 0.45 0.01 91 1006.3
20260507094204 45 294 0.9 1.7 0.00 0.45 0.01 92 1006.2
20260507093703 46 294 0.0 0.0 0.00 0.45 0.01 92 1006.2
20260507092704 46 294 0.0 0.0 0.00 0.45 0.01 92 1006.4
20260507092204 46 294 0.0 0.9 0.00 0.45 0.01 92 1006.7
20260507091704 46 294 0.9 1.7 0.00 0.45 0.01 92 1006.7
20260507091204 46 237 0.0 2.6 0.00 0.45 0.01 92 1006.6
20260507090703 46 263 0.0 0.9 0.00 0.45 0.01 92 1006.8
20260507090204 46 282 0.0 0.0 0.00 0.45 0.01 92 1006.7
20260507085204 46 282 0.0 0.0 0.00 0.45 0.01 93 1006.8
20260507084703 46 282 0.0 0.0 0.00 0.45 0.01 93 1006.7
20260507084203 46 282 0.0 0.0 0.00 0.45 0.01 92 1006.9
20260507083704 46 282 0.0 0.0 0.00 0.45 0.01 92 1006.8
20260507082704 46 209 0.0 0.0 0.01 0.45 0.01 92 1007.0
20260507082203 46 211 0.0 0.0 0.01 0.45 0.01 92 1006.7
20260507081703 46 211 0.0 0.0 0.01 0.45 0.01 92 1006.4
20260507081204 46 211 0.0 0.0 0.01 0.45 0.01 92 1006.6
20260507080703 46 211 0.0 0.0 0.01 0.45 0.01 92 1006.4
20260507080203 46 211 0.0 0.0 0.01 0.45 0.01 92 1006.6
20260507075703 46 211 0.0 0.0 0.01 0.45 0.01 91 1006.8
20260507074703 46 296 0.0 0.0 0.01 0.45 0.01 91 1006.3
20260507074203 46 296 0.0 0.0 0.01 0.45 0.01 90 1006.3
20260507073703 46 296 0.0 0.0 0.01 0.45 0.01 90 1006.2
20260507073204 47 296 0.0 0.0 0.00 0.44 0.00 89 1006.3
20260507072704 47 296 0.0 0.0 0.00 0.44 0.00 89 1006.4
20260507072203 47 296 0.0 0.0 0.00 0.44 0.00 88 1006.5
20260507071703 47 297 0.0 0.0 0.00 0.44 0.00 88 1006.8
20260507071203 47 296 0.0 0.0 0.00 0.44 0.00 88 1006.5
20260507070203 47 323 0.0 0.0 0.00 0.44 0.00 89 1006.1
20260507065704 46 323 0.0 0.0 0.00 0.44 0.00 88 1006.1
20260507065203 46 323 0.0 0.0 0.00 0.44 0.00 89 1006.0
20260507064703 47 323 0.0 0.0 0.00 0.44 0.00 88 1005.9
20260507064204 47 315 0.0 0.0 0.00 0.44 0.00 88 1005.8
20260507063705 47 314 0.0 0.0 0.00 0.44 0.00 88 1005.8
20260507063204 47 325 0.0 0.0 0.00 0.44 0.00 88 1005.9
20260507062703 47 330 0.0 0.0 0.00 0.44 0.00 88 1005.3
20260507061704 47 231 0.0 0.0 0.00 0.44 0.00 90 1006.1
20260507060704 47 277 0.0 0.0 0.00 0.44 0.00 89 1006.0
20260507060203 47 285 0.0 0.0 0.00 0.44 0.00 90 1005.8
20260507055703 47 285 0.0 0.0 0.00 0.44 0.00 90 1005.8
20260507055204 47 275 0.0 1.7 0.00 0.44 0.00 90 1006.0
20260507054703 48 275 0.0 0.0 0.00 0.44 0.00 90 1005.8
20260507054204 48 275 0.9 1.7 0.00 0.44 0.00 90 1006.2
20260507053704 48 275 0.0 1.7 0.00 0.44 0.00 90 1005.9
20260507053204 48 275 0.0 0.0 0.00 0.44 0.00 90 1006.2
20260507052203 49 283 0.9 1.7 0.00 0.44 0.00 90 1006.5
20260507051703 49 282 0.9 2.6 0.00 0.44 0.00 90 1006.7
20260507050703 49 257 0.0 1.7 0.00 0.44 0.00 91 1006.6
20260507050203 49 256 0.0 0.9 0.00 0.44 0.00 90 1006.4
20260507045704 49 257 0.9 2.6 0.00 0.44 0.00 90 1006.3
20260507044704 49 309 0.0 1.7 0.00 0.44 0.00 90 1006.3
20260507044203 50 323 0.9 1.7 0.00 0.44 0.00 89 1006.2
20260507043704 50 308 0.9 2.6 0.00 0.44 0.00 90 1006.0
20260507043204 50 296 0.9 2.6 0.00 0.44 0.00 91 1006.0
20260507042704 50 322 0.0 1.7 0.01 0.44 0.00 91 1005.6
20260507042204 51 295 0.9 4.3 0.02 0.44 0.00 92 1005.8
20260507041703 51 287 0.9 1.7 0.02 0.44 0.00 92 1005.9
20260507041204 51 271 0.9 2.6 0.02 0.44 0.00 92 1005.9
20260507040703 51 227 0.9 2.6 0.02 0.44 0.00 92 1005.8
20260507035704 52 252 0.0 0.9 0.02 0.44 0.44 92 1006.0
20260507035203 52 245 1.7 4.3 0.02 0.44 0.44 92 1006.2
20260507034704 52 242 0.9 5.2 0.02 0.44 0.44 92 1006.0
20260507034204 52 277 0.0 0.0 0.02 0.44 0.44 92 1005.9
20260507033704 52 277 0.0 0.0 0.02 0.44 0.44 92 1005.8
20260507033203 52 277 0.0 1.7 0.02 0.44 0.44 91 1005.8
20260507032703 53 262 0.9 2.6 0.02 0.44 0.44 91 1005.8
20260507032204 53 261 1.7 2.6 0.00 0.42 0.42 91 1005.9
20260507031704 53 293 0.9 7.8 0.00 0.42 0.42 91 1005.6
20260507031203 53 306 0.9 1.7 0.00 0.42 0.42 91 1005.5
20260507030704 54 303 1.7 2.6 0.00 0.42 0.42 91 1005.4
20260507030203 54 304 0.9 1.7 0.00 0.42 0.42 92 1005.3
20260507025704 54 304 0.9 2.6 0.00 0.42 0.42 93 1005.3
20260507025203 54 298 0.9 2.6 0.00 0.42 0.42 93 1005.2
20260507024704 54 315 0.9 1.7 0.00 0.42 0.42 92 1005.0
20260507024205 54 301 1.7 2.6 0.00 0.42 0.42 92 1004.8
20260507023703 55 296 1.7 2.6 0.00 0.42 0.42 92 1004.9
20260507022704 55 278 1.7 2.6 0.00 0.42 0.42 92 1005.0
20260507022204 55 287 1.7 2.6 0.00 0.42 0.42 92 1005.2
20260507021703 56 290 0.9 2.6 0.00 0.42 0.42 92 1005.2
20260507021204 56 311 1.7 2.6 0.00 0.42 0.42 91 1005.2
20260507015704 58 298 0.9 6.1 0.00 0.42 0.42 93 1005.0
20260507015204 58 223 2.6 8.7 0.00 0.42 0.42 93 1004.8
20260507014204 58 228 4.3 10.4 0.00 0.42 0.42 93 1004.5
20260507013204 58 235 5.2 11.3 0.00 0.42 0.42 93 1004.7
20260507012704 58 214 5.2 10.4 0.00 0.42 0.42 93 1004.3
20260507012203 58 227 4.3 11.3 0.00 0.42 0.42 93 1004.4
20260507011704 58 215 6.1 10.4 0.00 0.42 0.42 93 1004.4
20260507011204 58 210 3.5 10.4 0.00 0.42 0.42 93 1004.4
20260507010204 58 208 6.1 17.4 0.00 0.42 0.42 93 1004.6
20260507005703 58 190 5.2 10.4 0.00 0.42 0.42 93 1004.5
20260507005204 58 216 5.2 11.3 0.01 0.42 0.42 93 1004.5
20260507004703 58 235 4.3 10.4 0.01 0.42 0.42 93 1004.5
20260507004204 58 213 6.1 17.4 0.01 0.42 0.42 93 1004.5
20260507003204 58 224 7.8 15.6 0.01 0.42 0.42 93 1004.5
20260507002704 58 214 5.2 13.0 0.01 0.42 0.42 93 1004.3
20260507001703 58 195 4.3 10.4 0.01 0.42 0.42 93 1004.3
20260507000703 58 199 7.0 11.3 0.01 0.42 0.42 93 1004.3
20260507000212 58 201 4.3 12.2 0.01 0.42 0.42 93 1004.2
20260506235704 58 206 4.3 12.2 0.01 0.42 0.42 93 1004.3
20260506235203 58 224 4.3 11.3 0.00 0.41 0.41 93 1004.2
20260506234704 58 219 4.3 7.0 0.00 0.41 0.41 93 1004.2
20260506234203 58 186 5.2 10.4 0.01 0.41 0.41 93 1004.2
20260506233703 58 203 1.7 7.0 0.02 0.41 0.41 93 1004.0
20260506233204 58 202 2.6 7.8 0.04 0.41 0.41 93 1003.9
20260506232704 58 203 2.6 8.7 0.05 0.41 0.41 93 1004.0
20260506232203 58 216 5.2 11.3 0.07 0.41 0.41 93 1003.9
20260506231204 58 213 3.5 8.7 0.09 0.41 0.41 93 1003.9
20260506230704 58 195 2.6 7.0 0.10 0.41 0.41 93 1003.8
20260506230203 58 214 1.7 7.8 0.11 0.41 0.41 93 1003.9
20260506225705 58 210 2.6 7.8 0.12 0.41 0.41 93 1003.8
20260506224703 58 210 2.6 7.8 0.14 0.41 0.41 93 1003.9
20260506224204 58 186 4.3 8.7 0.13 0.40 0.40 93 1004.1
20260506223704 58 198 1.7 4.3 0.12 0.39 0.39 93 1003.9
20260506223203 58 281 2.6 12.2 0.11 0.37 0.37 93 1003.9
20260506222704 58 210 3.5 10.4 0.10 0.36 0.36 93 1004.0
20260506222203 58 225 5.2 10.4 0.08 0.34 0.34 92 1004.1
20260506220205 58 230 2.6 12.2 0.07 0.30 0.30 92 1004.2
20260506215704 58 211 4.3 11.3 0.07 0.29 0.29 92 1004.3
20260506215204 58 198 2.6 10.4 0.07 0.28 0.28 92 1004.3
20260506214704 58 204 6.1 11.3 0.08 0.27 0.27 92 1004.2
20260506214204 58 222 4.3 10.4 0.09 0.27 0.27 92 1004.2
20260506213704 58 197 4.3 10.4 0.09 0.27 0.27 92 1004.1
20260506213203 58 209 4.3 10.4 0.09 0.26 0.26 92 1004.2
20260506212703 58 190 3.5 10.4 0.10 0.26 0.26 92 1004.3
20260506212205 58 195 3.5 13.9 0.10 0.26 0.26 92 1004.2
20260506211704 58 176 3.5 10.4 0.10 0.25 0.25 92 1004.2
20260506211203 58 197 4.3 10.4 0.11 0.25 0.25 92 1004.2
20260506210204 58 227 4.3 10.4 0.12 0.23 0.23 92 1004.4
20260506205704 58 168 1.7 8.7 0.11 0.22 0.22 92 1004.3
20260506204703 58 217 3.5 7.8 0.10 0.19 0.19 92 1004.5
20260506204204 58 188 2.6 7.0 0.09 0.18 0.18 92 1004.6
20260506203203 58 188 2.6 7.0 0.09 0.17 0.17 91 1004.6
20260506201704 59 208 2.6 10.4 0.07 0.15 0.15 91 1004.8
20260506201204 59 166 2.6 8.7 0.06 0.14 0.14 90 1004.9
20260506200704 59 178 1.7 7.8 0.05 0.12 0.12 91 1004.9
20260506200203 59 199 2.6 7.0 0.04 0.11 0.11 90 1004.8
20260506195704 60 220 1.7 10.4 0.04 0.11 0.11 90 1004.9
20260506195204 60 199 1.7 10.4 0.04 0.10 0.10 90 1004.9
20260506194703 60 125 1.7 10.4 0.03 0.09 0.09 90 1004.9
20260506194203 60 214 0.9 10.4 0.03 0.09 0.09 89 1005.0
20260506193704 60 173 1.7 10.4 0.02 0.08 0.08 89 1005.2
20260506193204 60 231 3.5 17.4 0.02 0.08 0.08 89 1005.2
20260506192704 60 188 5.2 12.2 0.03 0.08 0.08 88 1005.1
20260506191704 60 198 5.2 11.3 0.03 0.08 0.08 89 1005.1
20260506191203 60 205 4.3 8.7 0.04 0.08 0.08 89 1005.1
20260506190704 60 164 2.6 6.1 0.04 0.07 0.07 90 1005.1
20260506190204 60 207 6.1 13.0 0.04 0.07 0.07 88 1005.2
20260506185704 60 222 2.6 7.8 0.05 0.07 0.07 89 1005.2
20260506185203 60 201 3.5 8.7 0.04 0.06 0.06 89 1005.1
20260506184704 60 218 1.7 7.0 0.05 0.06 0.06 89 1005.0
20260506184204 60 181 1.7 7.0 0.06 0.06 0.06 88 1005.1
20260506183204 60 154 2.6 8.7 0.06 0.06 0.06 88 1005.4
20260506182703 61 157 2.6 10.4 0.05 0.05 0.05 87 1005.4
20260506182204 61 179 2.6 11.3 0.05 0.05 0.05 87 1005.6
20260506181704 61 216 1.7 7.8 0.05 0.05 0.05 87 1005.7
20260506181204 61 177 4.3 12.2 0.04 0.04 0.04 86 1005.7
20260506180704 61 219 3.5 8.7 0.03 0.03 0.03 85 1005.8
20260506180204 62 175 3.5 8.7 0.03 0.03 0.03 84 1006.0
20260506175703 62 203 4.3 10.4 0.02 0.02 0.02 83 1006.0
20260506175204 62 0 5.2 10.4 0.02 0.02 0.02 81 1006.1
20260506174704 63 223 5.2 10.4 0.01 0.01 0.01 78 1006.1
20260506174203 64 209 4.3 13.9 0.00 0.00 0.00 76 1006.2
20260506173204 66 214 2.6 8.7 0.00 0.00 0.00 71 1006.1
20260506172703 67 223 4.3 11.3 0.00 0.00 0.00 69 1006.1
20260506172203 67 218 7.8 14.8 0.00 0.00 0.00 66 1006.1
20260506171704 67 211 5.2 13.0 0.00 0.00 0.00 66 1005.9
20260506171204 68 225 6.1 13.9 0.00 0.00 0.00 65 1005.8
20260506170704 68 217 5.2 10.4 0.00 0.00 0.00 65 1005.8
20260506170205 68 217 4.3 13.9 0.00 0.00 0.00 65 1005.9
20260506165704 68 213 5.2 11.3 0.00 0.00 0.00 65 1005.9
20260506165204 68 203 5.2 10.4 0.00 0.00 0.00 65 1005.9
20260506164703 68 195 2.6 15.6 0.00 0.00 0.00 65 1006.0
20260506163704 68 248 2.6 10.4 0.00 0.00 0.00 65 1006.0
20260506163231 68 212 7.8 17.4 0.00 0.00 0.00 64 1006.0
20260506162212 68 207 6.1 14.8 0.00 0.00 0.00 64 1006.2
20260506161710 67 216 7.0 14.8 0.00 0.00 0.00 64 1006.4
20260506161208 67 233 4.3 14.8 0.00 0.00 0.00 64 1006.3
20260506160746 67 252 8.7 17.4 0.00 0.00 0.00 64 1006.4
20260506160203 67 225 8.7 18.2 0.00 0.00 0.00 64 1006.6
20260506155702 68 161 5.2 11.3 0.00 0.00 0.00 64 1006.7
20260506155203 67 253 4.3 14.8 0.00 0.00 0.00 64 1006.7
20260506154702 67 186 5.2 17.4 0.00 0.00 0.00 64 1006.7
20260506154202 67 203 7.8 13.0 0.00 0.00 0.00 64 1006.9
20260506153703 67 221 4.3 10.4 0.00 0.00 0.00 65 1006.7
20260506153204 67 193 5.2 15.6 0.00 0.00 0.00 65 1006.9
20260506152702 67 218 7.0 20.0 0.00 0.00 0.00 65 1006.9
20260506152202 67 198 8.7 17.4 0.00 0.00 0.00 65 1007.0
20260506151702 67 194 5.2 13.0 0.00 0.00 0.00 66 1007.1
20260506151204 67 226 2.6 7.8 0.00 0.00 0.00 67 1007.0
20260506150702 67 182 4.3 8.7 0.00 0.00 0.00 67 1007.1
20260506145703 67 221 4.3 10.4 0.00 0.00 0.00 67 1007.3
20260506145202 67 192 3.5 8.7 0.00 0.00 0.00 67 1007.3
20260506144702 67 175 4.3 12.2 0.00 0.00 0.00 68 1007.3
20260506144202 67 190 2.6 10.4 0.00 0.00 0.00 69 1007.2
20260506143702 67 206 4.3 12.2 0.00 0.00 0.00 69 1007.3